Regional Weather Roundup
Issued by NWS Cleveland, OH

Home | Current Version | Previous Version | Text Only | Print | Product List | Glossary Off
Versions: 1 2 3 4 5 6 7 8 9 10 11 12 13 14 15 16 17 18 19 20 21 22 23 24 25 26 27 28 29 30 31 32 33 34 35 36 37 38 39 40 41 42 43 44 45 46 47 48 49 50

000
ASUS41 KCLE 040600
RWRCLE
OHIO REGIONAL WEATHER ROUNDUP
NATIONAL WEATHER SERVICE WILMINGTON, OH
200 AM EDT TUE AUG 04 2015

NOTE: "FAIR" INDICATES FEW OR NO CLOUDS BELOW 12,000 FEET WITH NO
SIGNIFICANT WEATHER AND/OR OBSTRUCTIONS TO VISIBILITY.

OHZ001>008-015>018-024>027-034-035-043-044-040700-
   NORTHWEST OHIO

CITY           SKY/WX    TMP DP  RH WIND       PRES   REMARKS
DEFIANCE       CLEAR     60  54  80 CALM      29.92R
FINDLAY        CLEAR     59  54  83 S3        29.91R
TOLEDO EXPRESS CLEAR     64  51  62 W7        29.89S
TOLEDO EXEC    CLEAR     64  52  64 W5        29.90R
LIMA           PTCLDY    60  55  83 CALM      29.93S
$$

OHZ009>014-019>023-028>033-038-089-040700-
   NORTHEAST OHIO

CITY           SKY/WX    TMP DP  RH WIND       PRES   REMARKS
CLE-HOPKINS    PTCLDY    68  53  58 W7        29.90R
CLE-LAKEFRONT  CLEAR     73  55  53 W17       29.85S
CUY CO. ARPT   NOT AVBL
LORAIN-ELYRIA  CLEAR     62  55  77 W7        29.90S
ASHTABULA      CLEAR     60  60 100 CALM      29.87R
AKRON-CANTON   CLEAR     67  56  67 W6        29.90R
WOOSTER        NOT AVBL
MANSFIELD      CLEAR     61  53  75 SW5       29.93R
YOUNGSTOWN     PTCLDY    62  60  93 SW5       29.88R
$$

OHZ042-051>053-060>062-070>072-077>081-040700-
  SOUTHWEST OHIO

CITY           SKY/WX    TMP DP  RH WIND       PRES   REMARKS
CINC-COVINGTON PTCLDY    70  65  84 CALM      29.93S
CINC-LUNKEN    CLEAR     67  67 100 CALM      29.93S FOG
HAMILTON       MOCLDY    69  68  96 N7        29.95R
DAYTON         NOT AVBL
WRIGHT-PAT AFB PTCLDY    68  65  90 N2        29.93F
DAYTON GENERAL CLOUDY    69  64  84 CALM      29.94S
WILMINGTON     MOCLDY    68  63  84 N3        29.95R
$$

OHZ036-037-039>041-045>050-054>059-063>069-073>076-082>088-040700-
  CENTRAL AND SOUTHEAST OHIO

CITY           SKY/WX    TMP DP  RH WIND       PRES   REMARKS
COLUMBUS       PTCLDY    67  61  81 CALM      29.92S
OSU AIRPORT    CLEAR     64  58  80 NW5       29.93F
BOLTON FIELD   NOT AVBL
RICKENBACK AFB NOT AVBL
NEWARK         CLEAR     64  60  87 CALM      29.92S
MARION         CLEAR     63  53  70 W3        29.93S
LANCASTER      PTCLDY    64  61  90 CALM      29.93S
ZANESVILLE     CLEAR     69  60  73 NW5       29.91R
NEW PHILLY     CLEAR     65  59  81 NW3       29.91R
$$



USA.gov is the U.S. government's official web portal to all federal, state and local government web resources and services.